Regional Weather Roundup
Issued by NWS

Home | Current Version | Previous Version | Graphics & Text | Print | Product List | Glossary On
Versions: 1 2 3 4 5 6 7 8 9 10 11 12 13 14 15 16 17 18 19 20 21 22 23 24 25 26 27 28 29 30 31 32 33 34 35 36 37 38 39 40 41 42 43 44 45 46 47 48 49 50
000
ASUS43 KOAX 201410
RWRNE

WEATHER ROUNDUP FOR NEBRASKA
NATIONAL WEATHER SERVICE OMAHA NE
900 AM CDT WED AUG 20 2014

NOTES: SATELLITE DATA IS BEING USED TO AUGMENT CLOUD COVER ABOVE
       12000 FEET.
       "FAIR" INDICATES FEW OR NO CLOUDS BELOW 12,000 FEET WITH NO
       SIGNIFICANT WEATHER AND/OR OBSTRUCTIONS TO VISIBILITY.

  * THESE STATIONS DO NOT REPORT WEATHER SUCH AS RAIN...SNOW OR FOG.

NEZ001>004-019>022-054>056-201500-
NEBRASKA PANHANDLE

CITY           SKY/WX    TMP DP  RH WIND       PRES   REMARKS
SCOTTSBLUFF    PTSUNNY   68  58  70 W3        29.84R
ALLIANCE       CLOUDY    67  57  70 CALM      29.82R
CHADRON        CLOUDY    74  54  49 CALM      29.75F
KIMBALL        PTSUNNY   68  54  62 NW3       29.89S
SIDNEY         PTSUNNY   67  57  70 W9        29.87R
$$

NEZ057>060-069>072-079>082-201500-
SOUTHWEST NEBRASKA

CITY           SKY/WX    TMP DP  RH WIND       PRES   REMARKS
NORTH PLATTE   PTSUNNY   73  64  73 S12       29.77S
IMPERIAL       PTSUNNY   68  62  81 NW7       29.81R
LEXINGTON      CLOUDY    73  67  80 S7        29.77S
MCCOOK         CLOUDY    74  65  73 S7        29.78R
OGALLALA       CLOUDY    65  63  92 CALM      29.80R
$$

NEZ005>010-023>029-035>040-094-201500-
NORTH CENTRAL NEBRASKA

CITY           SKY/WX    TMP DP  RH WIND       PRES   REMARKS
VALENTINE      MOSUNNY   68  66  93 SE3       29.77S
BROKEN BOW     CLOUDY    74  68  81 N3        29.77R
O`NEILL        PTSUNNY   72  69  91 SE8       29.77F
ORD            PTSUNNY   73  67  81 SE9       29.75S
THEDFORD       PTSUNNY   71  64  79 CALM      29.80R
$$

NEZ041-046>049-061>064-073>077-083>087-201500-
SOUTH CENTRAL NEBRASKA

CITY           SKY/WX    TMP DP  RH WIND       PRES   REMARKS
GRAND ISLAND   CLOUDY    75  65  70 S10       29.78R
AURORA         CLOUDY    74  67  78 S8        29.79R
HASTINGS       CLOUDY    72  63  73 S9        29.79S
HEBRON         PTSUNNY   74  64  70 S6        29.81S
HOLDREGE       PTSUNNY   73  64  73 S10       29.78S
KEARNEY *      CLOUDY    73  64  73 SE12      29.77F
YORK           CLOUDY    73 N/A N/A S8        29.81R
$$

NEZ011>018-030>034-042>045-201500-
NORTHEAST NEBRASKA

CITY           SKY/WX    TMP DP  RH WIND       PRES   REMARKS
NORFOLK        LGT RAIN  71  67  87 SE13      29.80S
ALBION         CLOUDY    71  67  85 SE9       29.79S
BLAIR          CLOUDY    72  67  85 NE15      29.85R
COLUMBUS *     CLOUDY    72  68  88 E5        29.83R
FREMONT        CLOUDY    73  68  83 NE12      29.83R
TEKAMAH        CLOUDY    73  67  81 SE13      29.83S
WAYNE          DRIZZLE   70  66  88 E12G18    29.83R
$$

NEZ050>053-065>068-078-088>093-201500-
SOUTHEAST NEBRASKA

CITY           SKY/WX    TMP DP  RH WIND       PRES   REMARKS
LINCOLN        CLOUDY    78  66  66 SW5       29.80R
OMAHA EPPLEY   CLOUDY    73  66  78 E18       29.84R
BEATRICE       PTSUNNY   76  69  79 S9        29.82S
FALLS CITY     MOSUNNY   79  70  74 S9        29.84R
NEBRASKA CITY  PTSUNNY   77  69  78 S7        29.82R
PLATTSMOUTH    PTSUNNY   77  70  77 NE3       29.84R
$$

NEZ044-045-051>053-067-201500-
OMAHA AREA

CITY           SKY/WX    TMP DP  RH WIND       PRES   REMARKS
OMAHA EPPLEY   CLOUDY    73  66  78 E18       29.84R
BLAIR          CLOUDY    72  67  85 NE15      29.85R
FREMONT        CLOUDY    73  68  83 NE12      29.83R
MILLARD        CLOUDY    76  70  80 E5        29.82R
OFFUTT AFB     CLOUDY    75  74  99 NE9       29.83R
PLATTSMOUTH    PTSUNNY   77  70  77 NE3       29.84R
WAHOO          FAIR      76  69  80 NE5       29.82R
$$


USA.gov is the U.S. government's official web portal to all federal, state and local government web resources and services.